Volver al catálogo

ONEWEB-0710

ActivoComunicacionesPO
NORAD 55173·PAYLOAD·🇬🇧 United Kingdom

Lanzado Jan 10, 2023 desde Cape Canaveral Space Force Station

Loading…

Próximos Pases (próximas 24 horas)

TLE

ActualizadoSource: CelesTrak SupGP

Época: Sep 14, 2026, 18:16 UTC

1 55173C 23004AK  26257.76127732  .00000197  00000+0  50865-3 0  2577
2 55173  87.9199 348.0772 0001868 108.2929  28.1176 13.17648474    12

Sigue ONEWEB-0710 en tiempo real con AllMySat

Download on the App Store